Location: Unspecified
(0.0000°N, 0.0000°E)
Time: 18:19:07
(UTC+00:00)

Vanguard 1 - Pass Details

Date: 22 April 2026
Orbit: 654 x 3817 km, 34.2° (Epoch: 18 May)

Event Time Altitude Azimuth Distance (km) Brightness Sun altitude
Rises 00:03:46 0° 299° (WNW) 7,718 14.7 -77.8°
Reaches altitude 10° 00:12:18 10° 316° (NW) 6,893 14.4 -77.4°
Maximum altitude 00:26:32 19° 354° (N) 5,979 14.0 -76.0°
Drops below altitude 10° 00:39:05 10° 33° (NNE) 6,039 14.2 -74.2°
Sets 00:45:40 0° 51° (NE) 6,509 14.5 -73.2°
